ONEWEB-0199, 48234

Orbit data source: Space-Track

ONEWEB-0199, 48234 is a payload satellite owned by One Web (NAA) (UK) in LEO that was launched on Sun, 25 Apr 2021 UTC via a SOYUZ-2-1B launch vehicle from the Vostochny Cosmodrome (VOSTO). Payload-class satellites include a variety of spacecraft equipped with specific instruments for various scientific and technological missions. These include communications satellites like Starlink; space stations such as the ISS; scientific satellites like the Hubble; Earth observation satellites from companies like Planet Labs, Umbra, and HawkEye 360; GPS; miniature CubeSats for education and research; and military/defense satellites.

Loading next visibility...
Identifier
48234, 2021-031AA
Orbit
LEO
Country
Flag of UKUK
Related business
Manufacturer
One Web
Mission
Operational Commercial Communications
Bus & Motor
ARROW, Unknown motor
Mass
148 kg wet, ~140 kg dry
Launch date (UTC)
2021-04-25 (5 years ago)
Launch vehicle
SOYUZ-2-1B
Launch site
Vostochny Cosmodrome (VOSTO)
Object type
Payload
Rocket body
Debris
Shape & HBR
Trap Box + 2 Pan, 6.7 m
Radar Cross Section
3.464 m², Large (>1 m²)

Expand to show TLE details & history
Last TLE update: 1 day ago

TLE from 1 day ago
0 ONEWEB-0199
1 48234U 21031AA  25305.36480187 -.00000076  00000-0 -23922-3 0  9996
2 48234  87.9009 335.0774 0001822  99.2701 260.8634 13.14501481218330
Epoch: 2025-11-01T08:45Z
TLE epoch observation values (Epoch: 2025-11-01T08:45:18.881Z)
Latitude
-0.00011°
Longitude
162.85279°
Altitude
1,208.909 km
Speed
7.25 km/s
True Right ascension
22h 20m 18s
True Declination
0° 00' 00"
Sunlit
Object was in daylight at epoch
Visualization orbit readout
Latitude
Unknown
Longitude
Unknown
Altitude
Unknown
Speed
Unknown
Apparent Right ascension
Unknown
Apparent Declination
Unknown
Sunlit
N/A
Visualization observer readout
Local Sidereal Time
09:16:11
Azimuth
Unknown
Elevation
Unknown
Doppler factor
Unknown
Orbital elements
Apogee altitude
1,204.29 km
Perigee altitude
1,201.528 km
Semi-major axis
7,581.046 km
Eccentricity
0.00018
Inclination
87.9009°
RAAN
335.0774°
Arg. of periapsis
99.2701°
True anomaly
260.84279°
Mean anomaly
260.8634°
Eccentric anomaly
260.85309°
Mean motion
3.28813 °/min
Orbital period
109.48 mins
BSTAR
-0.00023922
Loading maneuver chart data...
Computing Atmospheric mass density...
Loading historical data...
Loading historical data...
Loading historical data...
Loading historical data...
Loading historical data...
Loading historical data...
Loading historical data...

Documentation

Showing up to 5 results
|